Wind_Speed
45 58 70 80 90 102 114 129 130 130 126 124 118 114 102 101 98 87 62 74 77 74 60 51 46 41 42 30 32 31 36 42 48 35 43 44 40 33 30 34 34 32 37
35 48 63 71 84 95 109 124 131 134 130 128 122 119 110 105 102 90 80 75 82 81 66 57 48 45 43 35 29 29 34 38 44 49 47 44 43 31 34 36 36 34 36
32 41 57 66 76 91 104 117 128 137 135 133 128 123 115 109 106 101 84 74 74 87 81 63 56 48 42 38 33 31 33 37 44 47 48 44 39 40 40 36 34 36 36
31 39 50 61 69 84 101 113 124 137 139 136 133 127 123 114 110 101 94 90 82 75 78 61 58 51 45 42 38 33 33 36 39 42 43 38 37 40 35 39 41 39 42
28 38 47 56 64 77 97 111 119 137 142 138 136 134 129 120 115 110 101 93 88 79 82 67 59 53 47 42 41 33 31 36 36 37 43 45 37 41 38 39 41 46 49
25 35 45 53 58 72 90 107 118 135 143 142 140 139 131 125 118 111 104 100 92 87 89 76 66 61 50 46 42 34 27 28 35 37 39 49 46 49 48 45 46 43 41
23 31 41 49 55 69 83 102 115 131 143 144 143 143 134 129 124 118 105 100 95 85 83 77 70 69 61 47 42 37 30 26 31 36 38 42 51 51 50 45 44 40 40
24 27 36 45 52 66 80 96 112 124 142 144 145 147 139 133 129 122 108 101 94 84 84 84 73 71 67 54 49 39 31 32 32 31 36 37 39 40 46 44 46 43 33
30 24 31 41 45 58 76 89 107 117 139 144 149 150 143 139 133 122 112 109 99 91 87 88 79 74 67 60 53 45 33 34 33 31 36 37 37 42 43 40 38 31 31
38 29 25 34 40 51 70 83 100 115 134 147 150 152 147 144 136 125 117 106 102 99 87 90 81 73 70 66 54 46 45 44 35 33 37 38 38 39 40 38 33 30 32
35 33 23 29 36 47 67 79 95 111 128 143 155 155 152 149 137 128 119 109 105 98 98 87 84 76 72 62 57 47 45 44 38 35 37 38 39 41 39 38 33 33 34
30 28 21 25 35 48 64 76 89 107 123 140 157 159 158 152 140 131 119 111 107 104 99 93 88 84 76 66 61 47 49 44 40 36 36 35 35 38 40 38 35 34 32
29 25 20 23 34 48 61 73 85 102 120 143 157 161 161 154 141 132 125 117 117 102 96 94 95 85 74 68 59 51 51 47 40 35 34 30 34 37 39 38 35 32 31
24 26 19 19 30 46 58 70 83 100 118 142 157 162 161 153 141 130 129 119 113 105 99 96 90 85 74 65 59 53 51 47 44 39 35 30 32 36 38 38 34 34 32
22 16 20 18 29 45 55 66 81 96 116 139 158 163 160 151 140 135 125 117 113 105 107 96 88 80 76 69 62 55 51 53 47 42 37 31 32 35 37 36 35 35 34
31 20 15 14 24 39 50 63 79 94 114 135 158 163 159 150 139 131 121 116 110 104 101 99 86 80 79 70 65 59 57 56 50 43 42 36 32 33 36 36 36 36 34
26 22 12 11 20 34 45 59 75 95 114 136 159 162 156 148 136 129 125 124 111 100 92 91 87 83 72 74 65 58 60 57 49 44 43 39 35 37 37 37 37 39 37
28 19 11 6 16 28 41 54 72 92 110 132 157 165 156 145 138 134 132 123 111 97 92 92 91 84 77 71 63 60 61 54 52 52 44 42 38 38 39 42 40 39 39
26 18 10 1 9 22 36 51 69 92 110 138 158 161 152 145 135 130 125 120 108 103 98 87 89 80 75 69 64 60 63 59 49 53 46 42 41 39 41 43 44 41 41
29 19 12 8 8 20 33 51 69 91 114 137 156 159 151 139 125 121 118 109 106 96 97 88 88 86 83 79 72 66 66 63 56 48 52 45 48 47 44 46 44 43 44
28 17 13 10 15 20 34 52 75 92 118 140 159 154 144 127 115 117 109 101 98 91 94 93 83 83 84 75 71 71 65 66 58 54 55 49 55 55 52 51 48 48 49
32 19 13 14 17 25 39 59 75 99 123 142 154 146 134 122 114 108 108 104 97 96 96 92 85 84 76 72 76 68 67 68 64 61 60 56 59 58 57 56 54 54 53
28 17 16 18 21 30 42 60 86 101 123 138 140 135 126 114 108 105 105 101 96 99 91 94 90 78 73 76 71 64 68 67 65 60 61 59 60 59 57 59 59 59 60
27 16 21 24 27 34 46 64 83 100 123 134 136 131 120 115 112 105 104 103 93 89 86 93 87 79 78 79 73 74 72 67 65 67 64 62 62 59 59 64 61 61 62
25 14 23 32 39 49 62 83 102 114 122 137 132 127 119 117 115 106 107 106 97 90 88 84 84 85 76 75 71 69 70 72 68 63 60 61 62 64 65 63 63 65 63
17 11 27 40 54 71 81 99 111 122 134 131 126 125 124 117 116 113 107 103 96 99 94 89 86 86 81 80 82 80 77 77 74 69 65 64 65 66 62 61 61 63 65
Wind_Direction
237 231 232 222 219 214 212 210 204 204 205 204 204 203 197 196 196 196 193 205 218 228 231 222 229 229 241 240 237 233 232 231 219 226 240 229 233 245 242 253 256 265 266
241 227 228 224 217 213 211 210 205 202 203 201 201 201 196 198 199 193 194 204 202 219 219 225 227 227 237 237 229 233 233 234 228 226 232 231 236 234 245 245 250 258 264
243 227 225 225 216 212 210 210 206 203 201 200 197 197 195 196 196 194 196 194 197 220 222 226 223 223 230 234 226 232 231 234 233 232 228 226 232 238 234 244 253 264 269
240 229 224 224 218 211 208 208 206 203 200 199 195 194 196 196 196 196 193 198 202 214 215 215 222 225 224 235 237 231 236 231 236 232 230 221 228 240 237 244 253 258 267
240 231 225 223 219 211 208 206 206 202 200 196 193 193 194 194 194 194 194 195 198 208 212 218 219 221 223 228 236 234 230 233 233 235 221 219 237 241 242 245 255 265 270
252 233 230 225 218 213 209 206 204 201 199 195 193 192 192 192 193 194 192 197 196 204 207 210 216 222 226 234 231 232 234 240 234 233 228 221 231 238 247 254 262 264 266
262 241 232 230 220 212 209 208 203 201 199 195 193 191 191 191 191 194 193 191 195 197 202 209 216 227 227 221 230 226 227 240 238 236 236 230 229 239 249 257 258 262 272
279 248 236 231 224 213 209 206 205 201 198 194 191 189 190 190 191 192 193 192 194 205 203 205 213 222 222 225 227 225 237 249 246 240 236 234 234 234 243 249 258 263 256
293 264 239 235 227 214 211 206 205 201 197 195 190 188 189 191 189 193 193 191 197 197 203 203 214 219 218 227 225 228 232 246 243 234 234 232 233 237 243 246 247 248 256
299 284 254 236 226 214 211 208 204 201 197 193 190 188 188 189 190 190 194 195 193 196 201 202 208 218 220 225 223 223 236 250 238 229 232 231 234 237 240 244 247 249 258
295 290 267 239 220 211 209 207 203 202 198 196 191 187 188 188 188 191 190 190 195 194 197 200 209 216 218 220 223 223 238 239 231 225 232 233 237 240 242 245 248 254 261
301 291 269 241 217 209 208 205 202 200 197 197 189 187 187 187 187 189 189 191 197 197 201 204 207 209 215 220 223 226 237 226 223 221 230 235 241 246 247 249 252 257 261
306 295 273 238 218 209 207 203 200 198 195 192 190 188 186 186 186 187 186 192 198 201 196 201 205 207 211 219 219 225 228 227 224 227 232 238 247 250 252 250 252 254 257
307 297 287 246 214 209 207 202 199 196 193 190 190 187 186 185 186 187 188 193 196 198 198 201 203 205 207 217 219 222 230 228 225 234 238 237 248 252 251 252 252 254 259
338 307 285 242 211 208 208 200 198 193 193 191 188 187 185 185 184 185 187 192 195 198 201 201 202 202 210 216 217 223 233 231 226 233 235 234 246 249 252 253 250 252 258
334 323 296 255 212 206 205 199 196 192 192 190 187 184 183 181 183 184 187 189 192 188 195 197 197 201 208 211 215 225 228 227 229 233 235 237 241 247 252 248 247 251 261
349 339 320 264 212 207 203 197 195 190 189 188 187 183 180 179 181 185 184 188 191 192 194 196 196 200 210 207 217 223 226 224 227 233 239 241 240 247 253 244 247 255 263
358 359 345 258 213 206 199 193 191 189 188 188 185 183 178 179 182 182 186 188 189 192 196 195 198 205 206 208 213 223 223 219 227 232 234 246 246 248 255 248 248 254 260
10 14 22 350 200 198 193 190 186 185 187 187 184 181 178 179 185 187 189 190 195 196 201 204 203 209 205 210 212 214 222 227 225 230 231 244 245 247 252 251 252 255 260
6 22 48 101 166 187 186 182 183 179 186 186 183 181 179 182 187 188 191 193 196 201 203 201 205 208 209 216 218 218 221 225 228 231 234 238 252 253 251 252 254 257 263
9 25 58 105 140 171 175 175 177 180 181 183 180 180 180 183 185 186 190 194 192 194 199 204 207 210 210 210 216 220 221 228 229 229 228 235 253 248 249 253 254 258 266
5 26 66 109 140 160 169 172 175 178 181 183 180 179 181 181 182 185 185 191 192 197 198 204 206 205 207 214 214 220 225 228 232 232 231 235 241 244 249 253 255 262 267
6 43 83 113 138 151 166 173 175 180 181 181 178 181 181 179 182 184 189 189 196 202 204 205 204 203 206 215 221 218 224 230 231 237 232 237 244 248 253 257 257 261 267
12 59 96 113 132 147 162 170 173 178 176 179 178 178 178 179 182 184 189 192 196 200 198 203 204 207 212 216 222 232 226 226 234 237 240 245 245 247 256 257 258 263 268
12 85 109 120 131 144 155 163 168 169 175 178 178 177 178 182 184 188 189 193 198 199 203 209 212 212 214 219 220 220 225 231 234 233 241 245 249 248 252 255 259 266 267
7 115 124 137 146 150 158 163 168 172 178 178 178 181 182 185 186 190 193 198 201 204 210 213 214 215 215 218 223 226 232 235 234 240 246 245 246 247 249 256 261 267 269
Height
10258 10263 10271 10283 10302 10325 10347 10369 10396 10427 10461 10498 10531 10561 10586 10607 10624 10643 10654 10673 10684 10691 10702 10713 10723 10728 10733 10739 10740 10746 10751 10756 10761 10769 10774 10781 10786 10791 10795 10798 10799 10799 10800
10242 10246 10252 10264 10280 10302 10323 10346 10371 10399 10434 10470 10505 10537 10563 10585 10604 10623 10638 10654 10673 10677 10689 10701 10712 10721 10725 10733 10735 10738 10744 10750 10756 10762 10769 10776 10780 10786 10789 10791 10793 10794 10795
10228 10232 10236 10246 10261 10277 10300 10321 10348 10374 10406 10443 10480 10512 10541 10564 10585 10605 10625 10645 10655 10661 10678 10693 10703 10712 10718 10722 10727 10732 10738 10744 10750 10755 10762 10769 10773 10780 10783 10786 10788 10789 10790
10216 10219 10223 10231 10243 10258 10278 10301 10326 10352 10379 10416 10453 10486 10517 10537 10561 10584 10605 10624 10639 10650 10667 10682 10694 10702 10710 10716 10720 10726 10733 10738 10742 10750 10756 10764 10769 10774 10777 10780 10783 10784 10785
10206 10207 10210 10217 10228 10242 10257 10277 10304 10333 10360 10393 10430 10463 10494 10516 10540 10566 10586 10604 10622 10639 10655 10671 10684 10693 10701 10707 10714 10720 10727 10731 10738 10743 10750 10755 10764 10767 10770 10773 10776 10778 10779
10195 10196 10199 10205 10214 10228 10241 10257 10280 10312 10342 10372 10407 10441 10471 10496 10523 10549 10571 10590 10605 10625 10641 10658 10671 10681 10691 10700 10706 10713 10720 10726 10732 10738 10744 10752 10756 10761 10765 10768 10770 10772 10772
10184 10185 10188 10193 10200 10210 10224 10241 10259 10286 10320 10352 10389 10422 10451 10480 10503 10530 10553 10573 10594 10609 10625 10645 10660 10671 10685 10691 10699 10706 10714 10721 10727 10733 10738 10744 10749 10754 10759 10760 10762 10765 10767
10173 10174 10176 10178 10185 10196 10207 10224 10244 10266 10300 10335 10368 10403 10433 10463 10486 10513 10539 10560 10580 10598 10615 10632 10650 10661 10674 10683 10692 10699 10707 10715 10722 10728 10733 10738 10743 10748 10751 10753 10755 10758 10759
10162 10164 10164 10166 10173 10182 10193 10208 10230 10252 10281 10317 10348 10383 10418 10447 10473 10497 10522 10547 10568 10583 10603 10621 10638 10650 10666 10675 10683 10692 10701 10709 10717 10722 10727 10731 10736 10740 10743 10745 10747 10751 10753
10152 10152 10154 10155 10159 10169 10180 10195 10216 10236 10263 10296 10334 10364 10399 10431 10456 10483 10507 10532 10554 10572 10592 10611 10629 10641 10656 10668 10675 10684 10694 10704 10711 10716 10721 10724 10729 10732 10734 10738 10741 10745 10747
10144 10140 10141 10143 10147 10154 10165 10180 10197 10223 10250 10276 10314 10348 10382 10414 10441 10469 10495 10525 10543 10562 10582 10600 10617 10634 10648 10660 10667 10677 10687 10697 10703 10708 10715 10718 10722 10726 10729 10732 10736 10738 10740
10138 10130 10129 10131 10136 10141 10150 10164 10182 10206 10237 10269 10299 10333 10364 10399 10428 10458 10487 10514 10538 10558 10572 10590 10608 10621 10639 10652 10661 10671 10682 10689 10695 10701 10707 10711 10715 10719 10722 10726 10728 10731 10733
10127 10122 10120 10120 10125 10131 10138 10150 10169 10193 10223 10255 10290 10319 10354 10387 10421 10449 10479 10504 10526 10546 10564 10580 10600 10614 10632 10645 10655 10663 10675 10680 10687 10695 10700 10704 10708 10712 10716 10719 10722 10724 10726
10120 10114 10111 10113 10115 10122 10129 10141 10158 10181 10209 10243 10279 10311 10348 10382 10410 10440 10468 10497 10519 10539 10557 10576 10591 10608 10624 10638 10647 10658 10667 10673 10680 10688 10692 10697 10702 10706 10711 10713 10715 10717 10719
10113 10109 10106 10104 10107 10112 10123 10134 10150 10173 10200 10234 10270 10308 10340 10370 10401 10432 10462 10490 10513 10530 10549 10569 10583 10600 10613 10629 10642 10652 10660 10665 10673 10680 10685 10689 10694 10700 10704 10706 10708 10709 10710
10111 10105 10100 10100 10102 10107 10118 10131 10146 10168 10197 10229 10263 10298 10329 10366 10401 10428 10457 10484 10504 10523 10541 10555 10572 10591 10604 10619 10632 10641 10650 10657 10665 10671 10677 10682 10687 10694 10697 10698 10699 10702 10703
10112 10104 10100 10099 10099 10106 10115 10129 10145 10167 10193 10226 10261 10298 10329 10366 10397 10423 10451 10474 10499 10518 10533 10551 10564 10581 10595 10610 10623 10632 10642 10650 10656 10665 10671 10676 10680 10686 10689 10689 10691 10694 10696
10110 10104 10102 10101 10101 10107 10116 10130 10147 10168 10194 10226 10263 10298 10330 10364 10391 10418 10446 10470 10492 10513 10529 10546 10559 10573 10587 10603 10614 10624 10633 10640 10649 10658 10664 10670 10673 10678 10680 10682 10683 10685 10686
10117 10107 10103 10105 10106 10110 10119 10132 10149 10172 10201 10237 10273 10306 10334 10368 10394 10420 10451 10471 10491 10510 10527 10542 10553 10568 10583 10595 10605 10617 10627 10635 10642 10649 10656 10662 10665 10668 10671 10674 10674 10676 10678
10125 10115 10108 10107 10112 10117 10125 10137 10156 10179 10209 10246 10283 10315 10345 10372 10401 10426 10451 10473 10491 10505 10522 10535 10551 10563 10576 10587 10598 10610 10618 10626 10634 10641 10647 10652 10657 10658 10662 10664 10665 10668 10670
10133 10127 10118 10117 10118 10127 10136 10149 10167 10190 10217 10254 10290 10326 10356 10382 10404 10430 10451 10470 10488 10504 10518 10535 10546 10557 10568 10578 10588 10599 10609 10616 10623 10629 10637 10640 10644 10647 10652 10655 10657 10658 10660
10146 10141 10133 10130 10132 10138 10149 10162 10182 10198 10223 10265 10307 10339 10360 10379 10401 10427 10448 10466 10485 10500 10513 10525 10538 10547 10557 10566 10578 10589 10595 10603 10612 10618 10623 10627 10632 10638 10643 10646 10649 10650 10652
10164 10156 10149 10146 10150 10155 10167 10181 10201 10231 10261 10288 10327 10343 10360 10384 10407 10431 10452 10471 10484 10493 10507 10518 10531 10540 10549 10557 10567 10575 10585 10594 10603 10610 10613 10618 10623 10630 10636 10639 10639 10641 10642
10184 10176 10168 10166 10170 10178 10191 10207 10226 10252 10280 10307 10320 10337 10365 10388 10411 10431 10451 10467 10477 10490 10500 10512 10522 10532 10540 10549 10556 10565 10580 10590 10594 10599 10606 10611 10616 10623 10627 10627 10630 10630 10629
10204 10197 10190 10189 10194 10203 10218 10237 10256 10278 10298 10311 10328 10349 10369 10396 10413 10430 10445 10459 10471 10484 10496 10507 10517 10527 10536 10545 10553 10559 10571 10578 10582 10591 10596 10602 10608 10611 10614 10616 10618 10618 10617
10221 10217 10213 10214 10217 10222 10235 10253 10277 10292 10304 10328 10336 10358 10373 10391 10406 10423 10439 10450 10467 10479 10490 10500 10511 10520 10529 10533 10542 10550 10558 10564 10572 10577 10585 10589 10595 10599 10602 10605 10606 10606 10606